Lexington Weather

Lexington, Massachusetts, USA

47°F
9/19/2020 9:00am 
  • Lexington Conditions: Clear
  • Temperature: 47.1°F / 8.4°CWarmer 3.6°F than last hour.
  • Dew Point: 36.7°FIncreased 0.9°Fsince last hour.
  • Relative Humidity: 67%Decreased 7.0% since last hour.
  • Wind: Wind from ENE ENE 1 mph, 10-min avg: 1 mph, gust: 2 mph
  • Barometer: 30.26 inRising 0.02  inHg/hr Rising Slowly
  • Visibility: 10 miles
  • Rain Today: 0.00 in
  •   
Southeast Middlesex County - Special Weather Statement
 - SEE ALL NEARBY ALERTS -

Regional Weather Roundup
for Boston / Norton, MA

        
000
ASUS41 KBOX 121504
RWRBOX

REGIONAL WEATHER ROUNDUP
NATIONAL WEATHER SERVICE BOSTON/NORTON MA
1100 AM EDT SAT SEP 12 2020

NOTE:  "FAIR" INDICATES FEW OR NO CLOUDS BELOW 12,000 FEET WITH NO 
SIGNIFICANT WEATHER AND/OR OBSTRUCTIONS TO VISIBILITY.

MAZALL-121600-
EASTERN MASSACHUSETTS
  
CITY           SKY/WX    TMP DP  RH WIND       PRES   REMARKS
BOSTON         MOSUNNY   66  48  52 E14       30.37S                  
BEVERLY        PTSUNNY   64  54  69 N6        30.37S                  
LAWRENCE       PTSUNNY   65  53  65 NE9       30.39F                  
BEDFORD        PTSUNNY   68  52  56 E12       30.36S                  
BLUE HILL        N/A     64  47  53 NE12G21   30.36R                  
NORWOOD        SUNNY     68  47  46 NE14      30.36S                  
MARSHFIELD     MOSUNNY   68  50  52 E13       30.37R                  
PLYMOUTH       MOSUNNY   66  49  54 E12G17    30.37R                  
TAUNTON        SUNNY     68  48  48 E10       30.36R                  
NEW BEDFORD    MOSUNNY   69  51  52 E14       30.35R                  
$$

MAZALL-121600-
CAPE COD AND THE ISLANDS
  
CITY           SKY/WX    TMP DP  RH WIND       PRES   REMARKS
FALMOUTH       NOT AVBL                                               
HYANNIS        SUNNY     67  48  50 NE13      30.34R                  
CHATHAM        SUNNY     66  46  48 E14G20    30.36S                  
PROVINCETOWN   SUNNY     67  50  54 E15       30.38R                  
NANTUCKET      SUNNY     66  48  52 NE18G25   30.33S                  
MARTHAS VNYRD  MOSUNNY   69  50  50 NE17G24   30.34R                  
$$
 
MAZALL-121600-
CENTRAL AND WESTERN MASSACHUSETTS
  
CITY           SKY/WX    TMP DP  RH WIND       PRES   REMARKS
WORCESTER      MOSUNNY   62  49  62 VRB6      30.37F                  
FITCHBURG      MOSUNNY   65  49  56 VRB3      30.38F                  
ORANGE         MOSUNNY   63  49  60 CALM      30.38F                  
SPRINGFIELD    MOSUNNY   66  50  57 E6        30.36F                  
WESTFIELD      SUNNY     63  50  62 NE3       30.36F                  
NORTH ADAMS    SUNNY     63  49  60 E13       30.35F                  
PITTSFIELD     PTSUNNY   63  50  62 SE6       30.35F                  
$$
 
RIZALL-121600-
RHODE ISLAND
  
CITY           SKY/WX    TMP DP  RH WIND       PRES   REMARKS
PROVIDENCE     MOSUNNY   67  51  56 E8        30.36S                  
NEWPORT        MOSUNNY   68  51  54 E12       30.35R                  
BLOCK ISLAND   CLOUDY    64  52  64 NE12G20   30.35R                  
SMITHFIELD     PTSUNNY   67  51  56 E13G18    30.37S                  
WESTERLY       MOSUNNY   67  49  52 NE10      30.35S                  
$$
 
CTZALL-121600-
CONNECTICUT
  
CITY           SKY/WX    TMP DP  RH WIND       PRES   REMARKS
BRADLEY INTL   MOSUNNY   65  50  58 E5        30.36F                  
HARTFORD       MOSUNNY   67  49  52 NE6       30.35F                  
BRIDGEPORT     SUNNY     67  51  56 E16       30.34S                  
DANBURY        SUNNY     63  50  62 E10       30.36S                  
GROTON         SUNNY     66  50  56 E12       30.34S                  
NEW HAVEN      MOSUNNY   69  52  54 E10G16    30.34S                  
CHESTER        NOT AVBL                                               
MERIDEN        MOSUNNY   66  50  56 SE9       30.35S                  
WILLIMANTIC    MOSUNNY   65  49  56 NE9       30.35F                  
OXFORD         SUNNY     62  51  67 E10       30.36S                  
$$

MEZ002-015-021-024-NHZ003-005-008-011-012-014-VTZ005-008-121600-
NORTHERN NEW ENGLAND
  
CITY           SKY/WX    TMP DP  RH WIND       PRES   REMARKS
PORTLAND ME    MOSUNNY   65  45  48 E5        30.40F                  
BANGOR ME      MOSUNNY   63  45  51 S5        30.39F                  
CONCORD NH     SUNNY     64  46  52 CALM      30.38F                  
MANCHESTER NH  MOSUNNY   66  49  54 VRB6      30.36F                  
NASHUA NH      MOSUNNY   64  53  67 NE7       30.38F                  
PORTSMOUTH NH  MOSUNNY   65  48  55 E7        30.37F                  
JAFFREY NH     MOSUNNY   61  47  59 CALM      30.38F                  
KEENE NH       SUNNY     61  49  64 VRB3      30.38F                  
BURLINGTON VT  MOSUNNY   63  45  51 S5        30.35F                  
MT. WASHINGTON NOT AVBL                                               
$$

NYZ052-076-121600-
EASTERN NEW YORK
  
CITY           SKY/WX    TMP DP  RH WIND       PRES   REMARKS
ALBANY         MOSUNNY   58  50  75 CALM      30.36F                  
NEW YORK CITY  PTSUNNY   69  55  60 NE12      30.33R                  
$$
 
ANZALL-121600-
MARINE OBSERVATIONS
  
STATION/POSITION TIME  TEMP    WIND        PRES    VSBY  WAVE
                       AIR SEA DIR/SP/G                  HT/PER
                 (UTC) (F)     (DEG/KT/KT) (MB)    (MI)  (FT/S)
BOSTON BUOY      1450   63 67   70/ 12/ 14 1027.4R         3/ 5
BUZZARDS BAY     1400           60/ 18/ 20 1028.2R
NANTUCKET SOUND  1440      71   60/ 17/ 21   N/A
MASS BAY-STELLWA 1404   63     100/ 10/ 12 1026.4R  1 3/4  3/ 5
ISLE OF SHOALS   1400   58      30/ 14/ 15 1028.4R
S OF BLOCK IS    1426      69                N/A           5/ 6
$$

......................KEY.........................
  SKY/WX - SKY CONDITION/PRESENT WEATHER
  TMP    - TEMPERATURE IN FAHRENHEIT
  DWPT   - DEWPOINT IN FAHRENHEIT
  RH     - RELATIVE HUMIDITY IN PERCENT
  WIND   - DIRECTION AND SPEED IN MPH
  PRES   - MEAN SEA LEVEL PRESSURE IN INCHES OF HG
  WCI    - WIND CHILL INDEX
  VSB    - VISIBILITY IN MILES
  HX     - HEAT INDEX
  TC     - TEMPERATURE IN CELSIUS
  VRB    - VARIABLE WIND DIRECTION
  N/A    - NOT AVAILABLE
  
      

Other recent Regional Weather Roundups

Sat Sep 19, 8:04am

Sat Sep 19, 7:04am

Sat Sep 19, 6:04am

Sat Sep 19, 5:04am

Sat Sep 19, 4:04am

Sat Sep 19, 3:04am

Sat Sep 19, 2:04am

Sat Sep 19, 1:04am

Sat Sep 19, 12:04am

Fri Sep 18, 11:05pm

Fri Sep 18, 10:04pm

Fri Sep 18, 9:04pm

Fri Sep 18, 8:04pm

Fri Sep 18, 7:04pm

Fri Sep 18, 6:04pm

Fri Sep 18, 5:05pm

Fri Sep 18, 4:04pm

Fri Sep 18, 3:05pm

Fri Sep 18, 2:04pm

Fri Sep 18, 1:04pm

Fri Sep 18, 12:04pm

Fri Sep 18, 11:05am

Fri Sep 18, 10:05am

Fri Sep 18, 9:04am

Fri Sep 18, 8:04am

Fri Sep 18, 7:04am

Fri Sep 18, 6:04am

Fri Sep 18, 5:04am

Fri Sep 18, 4:04am

Fri Sep 18, 3:04am

Fri Sep 18, 2:04am

Fri Sep 18, 1:04am

Fri Sep 18, 12:04am

Thu Sep 17, 11:05pm

Thu Sep 17, 10:04pm

Thu Sep 17, 9:04pm

Thu Sep 17, 8:05pm

Thu Sep 17, 7:04pm

Thu Sep 17, 6:04pm

Thu Sep 17, 5:04pm

Thu Sep 17, 4:04pm

Thu Sep 17, 3:05pm

Thu Sep 17, 2:04pm

Thu Sep 17, 1:04pm

Thu Sep 17, 12:04pm

Thu Sep 17, 11:04am

Thu Sep 17, 10:04am

Thu Sep 17, 9:04am

Thu Sep 17, 8:04am

Thu Sep 17, 7:04am

Thu Sep 17, 6:04am

Thu Sep 17, 5:04am

Thu Sep 17, 4:04am

Thu Sep 17, 3:04am

Thu Sep 17, 2:05am

Thu Sep 17, 1:05am

Thu Sep 17, 12:04am

Wed Sep 16, 11:04pm

Wed Sep 16, 10:04pm

Wed Sep 16, 9:04pm

Wed Sep 16, 8:05pm

Wed Sep 16, 7:04pm

Wed Sep 16, 6:04pm

Wed Sep 16, 5:04pm

Wed Sep 16, 4:04pm

Wed Sep 16, 3:04pm

Wed Sep 16, 2:04pm

Wed Sep 16, 1:04pm

Wed Sep 16, 12:04pm

Wed Sep 16, 11:04am

Wed Sep 16, 10:04am

Wed Sep 16, 9:04am

Wed Sep 16, 8:04am

Wed Sep 16, 7:04am

Wed Sep 16, 6:04am

Wed Sep 16, 5:04am

Wed Sep 16, 4:04am

Wed Sep 16, 3:04am

Wed Sep 16, 2:04am

Wed Sep 16, 1:04am

Wed Sep 16, 12:05am

Tue Sep 15, 11:04pm

Tue Sep 15, 10:04pm

Tue Sep 15, 9:04pm

Tue Sep 15, 8:04pm

Tue Sep 15, 7:04pm

Tue Sep 15, 6:04pm

Tue Sep 15, 5:04pm

Tue Sep 15, 4:05pm

Tue Sep 15, 3:04pm

Tue Sep 15, 2:04pm

Tue Sep 15, 1:04pm

Tue Sep 15, 12:04pm

Tue Sep 15, 11:04am

Tue Sep 15, 10:04am

Tue Sep 15, 9:04am

Tue Sep 15, 8:04am

Tue Sep 15, 7:04am

Tue Sep 15, 6:04am

Tue Sep 15, 5:04am

Tue Sep 15, 4:04am

Tue Sep 15, 3:04am

Tue Sep 15, 2:04am

Tue Sep 15, 1:04am

Tue Sep 15, 12:05am

Mon Sep 14, 11:04pm

Mon Sep 14, 10:04pm

Mon Sep 14, 9:04pm

Mon Sep 14, 8:04pm

Mon Sep 14, 7:04pm

Mon Sep 14, 6:04pm

Mon Sep 14, 5:04pm

Mon Sep 14, 4:05pm

Mon Sep 14, 3:04pm

Mon Sep 14, 2:05pm

Mon Sep 14, 1:04pm

Mon Sep 14, 12:04pm

Mon Sep 14, 11:04am

Mon Sep 14, 10:05am

Mon Sep 14, 9:04am

Mon Sep 14, 8:04am

Mon Sep 14, 7:04am

Mon Sep 14, 6:04am

Mon Sep 14, 5:04am

Mon Sep 14, 4:04am

Mon Sep 14, 3:04am

Mon Sep 14, 2:04am

Mon Sep 14, 1:04am

Mon Sep 14, 12:04am

Sun Sep 13, 11:05pm

Sun Sep 13, 10:04pm

Sun Sep 13, 9:04pm

Sun Sep 13, 8:04pm

Sun Sep 13, 7:05pm

Sun Sep 13, 6:05pm

Sun Sep 13, 5:05pm

Sun Sep 13, 4:04pm

Sun Sep 13, 3:04pm

Sun Sep 13, 2:04pm

Sun Sep 13, 1:04pm

Sun Sep 13, 12:04pm

Sun Sep 13, 11:05am

Sun Sep 13, 10:04am

Sun Sep 13, 9:04am

Sun Sep 13, 8:04am

Sun Sep 13, 7:04am

Sun Sep 13, 6:04am

Sun Sep 13, 5:04am

Sun Sep 13, 4:04am

Sun Sep 13, 3:04am

Sun Sep 13, 2:04am

Sun Sep 13, 1:04am

Sun Sep 13, 12:04am

Sat Sep 12, 11:04pm

Sat Sep 12, 10:04pm

Sat Sep 12, 9:04pm

Sat Sep 12, 8:04pm

Sat Sep 12, 7:05pm

Sat Sep 12, 6:04pm

Sat Sep 12, 5:04pm

Sat Sep 12, 4:05pm

Sat Sep 12, 3:04pm

Sat Sep 12, 2:04pm

Sat Sep 12, 1:05pm

Sat Sep 12, 12:04pm

Sat Sep 12, 10:04am

Sat Sep 12, 9:04am

Meta data:

ID: 9871bbdb-6248-4e1e-b2fe-8f04333be762
Link: https://api.weather.gov/products/9871bbdb-6248-4e1e-b2fe-8f04333be762